Regional Weather Roundup
Issued by NWS Upton, NY

Current Version | Previous Version | Text Only | Print | Product List | Glossary On
Versions: 1 2 3 4 5 6 7 8 9 10 11 12 13 14 15 16 17 18 19 20 21 22 23 24 25 26 27
000
ASUS41 KOKX 210308
RWROKX

REGIONAL WEATHER ROUNDUP
NATIONAL WEATHER SERVICE NEW YORK NY
1100 PM EDT FRI OCT 20 2017

NOTE: "FAIR" INDICATES FEW OR NO CLOUDS BELOW 12,000 FEET WITH NO
SIGNIFICANT WEATHER AND/OR OBSTRUCTIONS TO VISIBILITY.

NYZ071-072-176-178-NJZ106-104-210400-
NEW YORK CITY METRO AREA

CITY           SKY/WX    TMP DP  RH WIND       PRES   REMARKS
Central Park   CLEAR     64  36  35 VRB3      30.24R
Bronx Bot Gard   N/A     63  34  34 CALM      30.20S
LaGuardia APRT PTCLDY    67  42  40 NW8       30.20R
Kennedy INTL   PTCLDY    62  37  39 NW8       30.21R
Breezy Point     N/A     63 N/A N/A NW6         N/A
Newark/Liberty CLEAR     63  37  38 N3        30.21R
Teterboro      CLEAR     57  40  52 CALM      30.20R
$$

NYZ177-179-078>081-210400-
LONG ISLAND NEW YORK

CITY           SKY/WX    TMP DP  RH WIND       PRES   REMARKS
Jones Beach      N/A     61 N/A N/A NW5         N/A
Matinecock PT    N/A     63 N/A N/A SW6         N/A
Farmingdale    CLEAR     56  44  64 NW3       30.20R
MacArthur/ISP  PTCLDY    55  45  68 NW3       30.19R
Shirley        CLEAR     50  44  80 NW7       30.19R
Mt Sinai Harb    N/A    N/A N/A N/A MISG        N/A
Westhampton    CLEAR     46  40  79 NW7       30.20R
East Hampton   FAIR      45  43  93 CALM      30.17S
Montauk          N/A     63  50  62 NW6       30.18R
$$

NYZ052-065-067-210400-
HUDSON VALLEY

CITY           SKY/WX    TMP DP  RH WIND       PRES   REMARKS
White Plains   CLEAR     56  43  61 NW5       30.20R
Larchmont Harb   N/A     61 N/A N/A MISG        N/A
Croton On Huds   N/A     57 N/A N/A NE5         N/A
Newburgh       CLEAR     54  39  58 W10       30.22R
Montgomery     CLEAR     52  37  56 W3        30.21R
Poughkeepsie   CLEAR     46  40  79 CALM      30.20R
Albany         CLEAR     54  34  46 NW5       30.20R
$$

NJZ001-105-106-008-010-013-015-019>022-104-210400-
NEW JERSEY

CITY           SKY/WX    TMP DP  RH WIND       PRES   REMARKS
Newark/Liberty CLEAR     63  37  38 N3        30.21R
Teterboro      CLEAR     57  40  52 CALM      30.20R
Caldwell       CLEAR     54  42  64 CALM      30.22R
Somerville     CLEAR     47  43  86 CALM      30.21R
Linden         NOT AVBL
Perth Amboy      N/A     61 N/A N/A W5          N/A
Sussex         CLEAR     44  41  89 CALM      30.24R
Andover          N/A     46  44  93 SW3       30.24R
Trenton        CLEAR     55  40  56 NW5       30.22R
Millville      CLEAR     52  48  86 CALM      30.23R
Atlantic City  CLEAR     57  44  62 CALM      30.22R
Wrightstown    CLEAR     53  41  63 CALM      30.20R
Toms River       N/A     46  41  82 CALM      30.22R
Belmar         CLEAR     55  41  59 NW6       30.23R
$$

PAZ047>061-062-071-210400-
EASTERN PENNSYLVANIA

CITY           SKY/WX    TMP DP  RH WIND       PRES   REMARKS
Philadelphia   CLEAR     61  39  44 CALM      30.23R
Allentown      CLEAR     52  39  61 S3        30.23R
Scranton       CLEAR     52  36  54 E7        30.25R
$$

CTZ002-004>006-009-010-012-RIZ004-006-007-MAZ004-011-015-210400-
SOUTHERN NEW ENGLAND
 IN CT

CITY           SKY/WX    TMP DP  RH WIND       PRES   REMARKS
Bradley INTL   PTCLDY    54  39  57 CALM      30.18R
Hartford       CLEAR     52  46  80 CALM      30.18R
Danbury        CLEAR     46  41  82 CALM      30.22R
Wtrbury/Oxford CLEAR     53  36  52 N3        30.20R
Norwalk Harbor   N/A     57 N/A N/A NE1         N/A
Bridgeport     CLEAR     57  41  55 W3        30.19R
Meriden        CLEAR     48  42  80 S6        30.19R
New Haven      CLEAR     50  39  66 CALM      30.19R
Chester        FAIR      57  39  51 W5        30.19R
Groton         CLEAR     50  45  83 N3        30.18R
Wilimantic     CLEAR     48  43  82 CALM      30.18R

 IN RI

CITY           SKY/WX    TMP DP  RH WIND       PRES   REMARKS
Providence     PTCLDY    57  40  52 W6        30.16R
Block Island   CLEAR     62  49  62 NW8       30.17R
Westerly       CLEAR     57  42  57 SW3       30.17R
 IN MA

CITY           SKY/WX    TMP DP  RH WIND       PRES   REMARKS
Boston         CLEAR     63  35  35 NW12      30.13R
Worcester      CLOUDY    57  31  37 NW9       30.16R
Westfield      CLEAR     46  41  82 CALM      30.18R
Provincetown   CLEAR     60  48  64 NW8       30.13R
Nantucket      CLEAR     60  49  66 NW10      30.11R
$$

ANZ330-335-338-340-345-350-353-355-210400-
COASTAL MARINE OBSERVATIONS


STATION/POSITION TIME  SKY/WX   TEMP    WIND        PRES    VSBY  WAVE
                                AIR SEA DIR/SP/G                  HT/PER
                 (UTC)          (F)     (DEG/KT/KT) (MB)    (MI)  (FT/S)
NY HARB ENTRANCE 0250            66 64  300/ 12/ 16 1021.8          2/ 8
20 S FIRE ISLAND 0150            65 64  310/  4/  6 1021.6          2/ 9
GREAT SOUTH BAY  0230            60 62  300/  4/  6   N/A
15 E BARNEGAT LI NOT AVBL
HUDSON CANYON    0150            66 65  280/  8/ 10 1021.0          3/ 8
KINGS POINT      0230            66 65  340/  5/  5 1023.2
EXECUTION ROCKS  0230            65     300/  6/ 10   N/A
WESTERN LI SOUND 0149            64     310/  6/  8   N/A           0
CENTRAL LI SOUND 0200            67     300/  8/ 10   N/A           1
EASTERN LI SOUND NOT AVBL
ROBBINS REEF     0230            65     290/  4/  5 1023.3
$$


>>>>>>>>>>>>>>>>>>>>>>>>>>>> KEY <<<<<<<<<<<<<<<<<<<<<<<<<<<
>                                                          <
>     SKY/WX - Sky Condition/Present Weather               <
>     TMP    - Temperature in Fahrenheit                   <
>     DP     - Dew Point in Fahrenheit                     <
>     RH     - Relative Humidity in Percent                <
>     WIND   - Direction (from) and Speed in MPH           <
>     PRES   - Mean Sea Level Pressure (inches of Hg)      <
>     WCI    - Wind Chill Index                            <
>     VSB    - VISIBILITY IN MILES                         <
>     HX     - HEAT INDEX                                  <
>     TC     - TEMPERATURE IN CELSIUS                      <
>     VRB    - VARIABLE WIND DIRECTION                     <
>                                                          <
>>>>>>>>>>>>>>>>>>>>>>>>>>>> KEY <<<<<<<<<<<<<<<<<<<<<<<<<<<




USA.gov is the U.S. government's official web portal to all federal, state and local government web resources and services.